Time,TemperatureF,DewpointF,PressureIn,WindDirection,WindDirectionDegrees,WindSpeedMPH,WindSpeedGustMPH,Humidity,HourlyPrecipIn,Conditions,Clouds,dailyrainin,SoftwareType,DateUTC
2013-02-07 00:00:00,30.6,20.2,30.30,North,0,0.0,0.0,65,0.00,,,0.02,WUHU216HW,2013-02-07 05:00:00,
2013-02-07 00:05:00,30.6,20.2,30.30,North,0,0.0,0.0,65,0.00,,,0.00,WUHU216HW,2013-02-07 05:05:00,
2013-02-07 00:30:00,29.7,19.7,30.29,North,0,0.0,0.0,66,0.00,,,0.00,WUHU216HW,2013-02-07 05:30:00,
2013-02-07 00:35:00,29.7,19.7,30.29,North,0,0.0,0.0,66,0.00,,,0.00,WUHU216HW,2013-02-07 05:35:00,
2013-02-07 00:59:00,29.5,19.5,30.30,North,0,0.0,0.0,66,0.00,,,0.00,WUHU216HW,2013-02-07 05:59:00,
2013-02-07 01:00:00,29.5,19.5,30.30,North,0,0.0,0.0,66,0.00,,,0.00,WUHU216HW,2013-02-07 06:00:00,
2013-02-07 01:05:00,29.5,19.5,30.30,North,0,0.0,0.0,66,0.00,,,0.00,WUHU216HW,2013-02-07 06:05:00,
2013-02-07 01:30:00,28.8,19.3,30.32,North,0,0.0,0.0,67,0.00,,,0.00,WUHU216HW,2013-02-07 06:30:00,
2013-02-07 01:35:00,28.8,19.3,30.32,North,0,0.0,0.0,67,0.00,,,0.00,WUHU216HW,2013-02-07 06:35:00,
2013-02-07 01:59:00,29.0,19.7,30.33,North,0,0.0,0.0,68,0.00,,,0.00,WUHU216HW,2013-02-07 06:59:00,
2013-02-07 02:00:00,29.0,19.7,30.33,North,0,0.0,0.0,68,0.00,,,0.00,WUHU216HW,2013-02-07 07:00:00,
2013-02-07 02:05:00,29.0,19.7,30.33,North,0,0.0,0.0,68,0.00,,,0.00,WUHU216HW,2013-02-07 07:05:00,
2013-02-07 02:30:00,28.3,19.1,30.33,North,0,0.0,0.0,68,0.00,,,0.00,WUHU216HW,2013-02-07 07:30:00,
2013-02-07 02:35:00,28.3,19.1,30.33,North,0,0.0,0.0,68,0.00,,,0.00,WUHU216HW,2013-02-07 07:35:00,
2013-02-07 02:59:00,28.3,19.4,30.34,North,0,0.0,0.0,69,0.00,,,0.00,WUHU216HW,2013-02-07 07:59:00,
2013-02-07 03:00:00,28.3,19.4,30.34,North,0,0.0,0.0,69,0.00,,,0.00,WUHU216HW,2013-02-07 08:00:00,
2013-02-07 03:05:00,28.3,19.4,30.34,North,0,0.0,0.0,69,0.00,,,0.00,WUHU216HW,2013-02-07 08:05:00,
2013-02-07 03:30:00,28.1,19.6,30.33,North,0,0.0,0.0,70,0.00,,,0.00,WUHU216HW,2013-02-07 08:30:00,
2013-02-07 03:35:00,28.1,19.6,30.33,North,0,0.0,0.0,70,0.00,,,0.00,WUHU216HW,2013-02-07 08:35:00,
2013-02-07 03:59:00,28.1,19.9,30.32,North,0,0.0,0.0,71,0.00,,,0.00,WUHU216HW,2013-02-07 08:59:00,
2013-02-07 04:00:00,28.1,19.9,30.32,North,0,0.0,0.0,71,0.00,,,0.00,WUHU216HW,2013-02-07 09:00:00,
2013-02-07 04:05:00,28.1,19.9,30.32,North,0,0.0,0.0,71,0.00,,,0.00,WUHU216HW,2013-02-07 09:05:00,
2013-02-07 04:30:00,28.8,20.4,30.32,North,0,0.0,0.0,70,0.00,,,0.00,WUHU216HW,2013-02-07 09:30:00,
2013-02-07 04:35:00,28.8,20.4,30.32,North,0,0.0,0.0,70,0.00,,,0.00,WUHU216HW,2013-02-07 09:35:00,
2013-02-07 05:00:00,29.5,21.0,30.33,North,0,0.0,0.0,70,0.00,,,0.00,WUHU216HW,2013-02-07 10:00:00,
2013-02-07 05:05:00,29.5,21.0,30.33,North,0,0.0,0.0,70,0.00,,,0.00,WUHU216HW,2013-02-07 10:05:00,
2013-02-07 05:30:00,30.6,20.9,30.34,North,0,0.0,0.0,67,0.00,,,0.00,WUHU216HW,2013-02-07 10:30:00,
2013-02-07 05:35:00,30.6,20.9,30.34,North,0,0.0,0.0,67,0.00,,,0.00,WUHU216HW,2013-02-07 10:35:00,
2013-02-07 06:00:00,31.3,21.2,30.35,North,0,0.0,0.0,66,0.00,,,0.00,WUHU216HW,2013-02-07 11:00:00,
2013-02-07 06:05:00,31.3,21.2,30.35,North,0,0.0,0.0,66,0.00,,,0.00,WUHU216HW,2013-02-07 11:05:00,
2013-02-07 06:30:00,31.5,20.7,30.36,North,0,0.0,0.0,64,0.00,,,0.00,WUHU216HW,2013-02-07 11:30:00,
2013-02-07 06:35:00,31.5,20.7,30.36,North,0,0.0,0.0,64,0.00,,,0.00,WUHU216HW,2013-02-07 11:35:00,
2013-02-07 06:59:00,31.9,21.4,30.37,North,0,0.0,0.0,65,0.00,,,0.00,WUHU216HW,2013-02-07 11:59:00,
2013-02-07 07:00:00,31.9,21.4,30.37,North,0,0.0,0.0,65,0.00,,,0.00,WUHU216HW,2013-02-07 12:00:00,
2013-02-07 07:05:00,31.9,21.4,30.37,North,0,0.0,0.0,65,0.00,,,0.00,WUHU216HW,2013-02-07 12:05:00,
2013-02-07 07:30:00,31.7,21.2,30.39,North,0,0.0,0.0,65,0.00,,,0.00,WUHU216HW,2013-02-07 12:30:00,
2013-02-07 07:35:00,31.7,21.2,30.39,North,0,0.0,0.0,65,0.00,,,0.00,WUHU216HW,2013-02-07 12:35:00,
2013-02-07 07:59:00,31.9,21.4,30.40,North,0,0.0,0.0,65,0.00,,,0.00,WUHU216HW,2013-02-07 12:59:00,
2013-02-07 08:00:00,31.9,21.4,30.40,North,0,0.0,0.0,65,0.00,,,0.00,WUHU216HW,2013-02-07 13:00:00,
2013-02-07 08:05:00,31.9,21.4,30.40,North,0,0.0,0.0,65,0.00,,,0.00,WUHU216HW,2013-02-07 13:05:00,
2013-02-07 08:30:00,32.2,21.8,30.40,North,0,0.0,0.0,65,0.00,,,0.00,WUHU216HW,2013-02-07 13:30:00,
2013-02-07 08:35:00,32.2,21.8,30.40,North,0,0.0,0.0,65,0.00,,,0.00,WUHU216HW,2013-02-07 13:35:00,
2013-02-07 08:59:00,32.8,21.9,30.40,North,0,0.0,0.0,64,0.00,,,0.00,WUHU216HW,2013-02-07 13:59:00,
2013-02-07 09:00:00,32.8,21.9,30.40,North,0,0.0,0.0,64,0.00,,,0.00,WUHU216HW,2013-02-07 14:00:00,
2013-02-07 09:05:00,32.8,21.9,30.40,North,0,0.0,0.0,64,0.00,,,0.00,WUHU216HW,2013-02-07 14:05:00,
2013-02-07 09:30:00,34.0,22.0,30.41,North,0,0.0,0.0,61,0.00,,,0.00,WUHU216HW,2013-02-07 14:30:00,
2013-02-07 09:35:00,34.0,22.0,30.41,North,0,0.0,0.0,61,0.00,,,0.00,WUHU216HW,2013-02-07 14:35:00,
2013-02-07 10:00:00,34.4,20.7,30.40,North,0,0.0,0.0,57,0.00,,,0.00,WUHU216HW,2013-02-07 15:00:00,
2013-02-07 10:05:00,34.4,20.3,30.40,North,0,0.0,0.0,56,0.00,,,0.00,WUHU216HW,2013-02-07 15:05:00,
2013-02-07 10:30:00,34.7,19.7,30.39,North,0,0.0,0.0,54,0.00,,,0.00,WUHU216HW,2013-02-07 15:30:00,
2013-02-07 10:35:00,34.7,19.7,30.39,North,0,0.0,0.0,54,0.00,,,0.00,WUHU216HW,2013-02-07 15:35:00,
2013-02-07 11:00:00,35.8,19.9,30.39,North,0,0.0,0.0,52,0.00,,,0.00,WUHU216HW,2013-02-07 16:00:00,
2013-02-07 11:05:00,36.0,19.6,30.39,North,0,0.0,0.0,51,0.00,,,0.00,WUHU216HW,2013-02-07 16:05:00,
2013-02-07 11:30:00,36.4,19.0,30.39,North,0,0.0,0.0,49,0.00,,,0.00,WUHU216HW,2013-02-07 16:30:00,
2013-02-07 11:35:00,36.4,19.0,30.39,North,0,0.0,0.0,49,0.00,,,0.00,WUHU216HW,2013-02-07 16:35:00,
2013-02-07 12:00:00,37.1,20.2,30.37,North,0,0.0,0.0,50,0.00,,,0.00,WUHU216HW,2013-02-07 17:00:00,
2013-02-07 12:05:00,37.1,20.2,30.37,North,0,0.0,0.0,50,0.00,,,0.00,WUHU216HW,2013-02-07 17:05:00,
2013-02-07 12:30:00,36.9,20.4,30.35,North,0,0.0,0.0,51,0.00,,,0.00,WUHU216HW,2013-02-07 17:30:00,
2013-02-07 12:35:00,36.9,20.4,30.35,North,0,0.0,0.0,51,0.00,,,0.00,WUHU216HW,2013-02-07 17:35:00,
2013-02-07 13:00:00,37.1,21.1,30.34,North,0,0.0,0.0,52,0.00,,,0.00,WUHU216HW,2013-02-07 18:00:00,
2013-02-07 13:05:00,37.1,21.1,30.34,North,0,0.0,0.0,52,0.00,,,0.00,WUHU216HW,2013-02-07 18:05:00,
2013-02-07 13:30:00,37.1,20.6,30.33,North,0,0.0,0.0,51,0.00,,,0.00,WUHU216HW,2013-02-07 18:30:00,
2013-02-07 13:35:00,37.1,20.6,30.33,North,0,0.0,0.0,51,0.00,,,0.00,WUHU216HW,2013-02-07 18:35:00,
2013-02-07 13:59:00,36.7,20.7,30.31,North,0,0.0,0.0,52,0.00,,,0.00,WUHU216HW,2013-02-07 18:59:00,
2013-02-07 14:00:00,36.7,20.7,30.31,North,0,0.0,0.0,52,0.00,,,0.00,WUHU216HW,2013-02-07 19:00:00,
2013-02-07 14:05:00,36.7,20.7,30.31,North,0,0.0,0.0,52,0.00,,,0.00,WUHU216HW,2013-02-07 19:05:00,
2013-02-07 14:30:00,37.8,22.1,30.30,North,0,0.0,0.0,53,0.00,,,0.00,WUHU216HW,2013-02-07 19:30:00,
2013-02-07 14:35:00,37.8,22.1,30.30,North,0,0.0,0.0,53,0.00,,,0.00,WUHU216HW,2013-02-07 19:35:00,
2013-02-07 14:59:00,37.8,21.2,30.29,North,0,0.0,0.0,51,0.00,,,0.00,WUHU216HW,2013-02-07 19:59:00,
2013-02-07 15:00:00,37.8,21.2,30.29,North,0,0.0,0.0,51,0.00,,,0.00,WUHU216HW,2013-02-07 20:00:00,
2013-02-07 15:05:00,37.8,21.2,30.29,North,0,0.0,0.0,51,0.00,,,0.00,WUHU216HW,2013-02-07 20:05:00,
2013-02-07 15:30:00,38.2,21.6,30.28,North,0,0.0,0.0,51,0.00,,,0.00,WUHU216HW,2013-02-07 20:30:00,
2013-02-07 15:35:00,38.2,21.6,30.28,North,0,0.0,0.0,51,0.00,,,0.00,WUHU216HW,2013-02-07 20:35:00,
2013-02-07 15:59:00,38.5,21.0,30.27,North,0,0.0,0.0,49,0.00,,,0.00,WUHU216HW,2013-02-07 20:59:00,
2013-02-07 16:00:00,38.5,21.0,30.27,North,0,0.0,0.0,49,0.00,,,0.00,WUHU216HW,2013-02-07 21:00:00,
2013-02-07 16:05:00,38.5,21.0,30.27,North,0,0.0,0.0,49,0.00,,,0.00,WUHU216HW,2013-02-07 21:05:00,
2013-02-07 16:30:00,38.3,21.3,30.26,North,0,0.0,0.0,50,0.00,,,0.00,WUHU216HW,2013-02-07 21:30:00,
2013-02-07 16:35:00,38.3,21.3,30.26,North,0,0.0,0.0,50,0.00,,,0.00,WUHU216HW,2013-02-07 21:35:00,
2013-02-07 16:59:00,37.8,22.1,30.26,North,0,0.0,0.0,53,0.00,,,0.00,WUHU216HW,2013-02-07 21:59:00,
2013-02-07 17:00:00,37.8,22.1,30.26,North,0,0.0,0.0,53,0.00,,,0.00,WUHU216HW,2013-02-07 22:00:00,
2013-02-07 17:05:00,37.8,22.1,30.26,North,0,0.0,0.0,53,0.00,,,0.00,WUHU216HW,2013-02-07 22:05:00,
2013-02-07 17:30:00,37.3,22.5,30.26,North,0,0.0,0.0,55,0.00,,,0.00,WUHU216HW,2013-02-07 22:30:00,
2013-02-07 17:35:00,37.3,22.5,30.26,North,0,0.0,0.0,55,0.00,,,0.00,WUHU216HW,2013-02-07 22:35:00,
2013-02-07 18:00:00,37.1,23.2,30.28,North,0,0.0,0.0,57,0.00,,,0.00,WUHU216HW,2013-02-07 23:00:00,
2013-02-07 18:05:00,37.1,23.2,30.28,North,0,0.0,0.0,57,0.00,,,0.00,WUHU216HW,2013-02-07 23:05:00,
2013-02-07 18:30:00,37.1,24.5,30.28,North,0,0.0,0.0,60,0.00,,,0.00,WUHU216HW,2013-02-07 23:30:00,
2013-02-07 18:35:00,37.1,24.5,30.28,North,0,0.0,0.0,60,0.00,,,0.00,WUHU216HW,2013-02-07 23:35:00,
2013-02-07 19:00:00,36.9,24.8,30.28,North,0,0.0,0.0,61,0.00,,,0.00,WUHU216HW,2013-02-08 00:00:00,
2013-02-07 19:05:00,36.9,24.8,30.28,North,0,0.0,0.0,61,0.00,,,0.00,WUHU216HW,2013-02-08 00:05:00,
2013-02-07 19:30:00,36.7,25.3,30.28,North,0,0.0,0.0,63,0.00,,,0.00,WUHU216HW,2013-02-08 00:30:00,
2013-02-07 19:35:00,36.7,25.3,30.28,North,0,0.0,0.0,63,0.00,,,0.00,WUHU216HW,2013-02-08 00:35:00,
2013-02-07 19:59:00,36.4,25.8,30.27,North,0,0.0,0.0,65,0.00,,,0.00,WUHU216HW,2013-02-08 00:59:00,
2013-02-07 20:00:00,36.4,25.8,30.27,North,0,0.0,0.0,65,0.00,,,0.00,WUHU216HW,2013-02-08 01:00:00,
2013-02-07 20:05:00,36.4,25.8,30.27,North,0,0.0,0.0,65,0.00,,,0.00,WUHU216HW,2013-02-08 01:05:00,
2013-02-07 20:30:00,35.8,25.9,30.27,North,0,0.0,0.0,67,0.00,,,0.00,WUHU216HW,2013-02-08 01:30:00,
2013-02-07 20:35:00,35.8,25.9,30.27,North,0,0.0,0.0,67,0.00,,,0.00,WUHU216HW,2013-02-08 01:35:00,
2013-02-07 20:59:00,35.6,25.7,30.26,North,0,0.0,0.0,67,0.00,,,0.00,WUHU216HW,2013-02-08 01:59:00,
2013-02-07 21:00:00,35.6,25.7,30.26,North,0,0.0,0.0,67,0.00,,,0.00,WUHU216HW,2013-02-08 02:00:00,
2013-02-07 21:05:00,35.6,25.7,30.26,North,0,0.0,0.0,67,0.00,,,0.00,WUHU216HW,2013-02-08 02:05:00,
2013-02-07 21:30:00,35.3,25.4,30.25,North,0,0.0,0.0,67,0.00,,,0.00,WUHU216HW,2013-02-08 02:30:00,
2013-02-07 21:35:00,35.3,25.4,30.25,North,0,0.0,0.0,67,0.00,,,0.00,WUHU216HW,2013-02-08 02:35:00,
2013-02-07 22:00:00,35.3,25.4,30.23,North,0,0.0,0.0,67,0.00,,,0.00,WUHU216HW,2013-02-08 03:00:00,
2013-02-07 22:05:00,35.3,25.4,30.23,North,0,0.0,0.0,67,0.00,,,0.00,WUHU216HW,2013-02-08 03:05:00,
2013-02-07 22:30:00,34.9,24.3,30.22,North,0,0.0,0.0,65,0.00,,,0.00,WUHU216HW,2013-02-08 03:30:00,
2013-02-07 22:35:00,34.9,24.3,30.22,North,0,0.0,0.0,65,0.00,,,0.00,WUHU216HW,2013-02-08 03:35:00,
2013-02-07 23:00:00,34.7,23.8,30.19,North,0,0.0,0.0,64,0.00,,,0.00,WUHU216HW,2013-02-08 04:00:00,
2013-02-07 23:05:00,34.7,23.8,30.19,North,0,0.0,0.0,64,0.00,,,0.00,WUHU216HW,2013-02-08 04:05:00,
2013-02-07 23:10:00,34.7,23.8,30.19,North,0,0.0,0.0,64,0.00,,,0.00,WUHU216HW,2013-02-08 04:10:00,
2013-02-07 23:30:00,34.6,23.6,30.17,North,0,0.0,0.0,64,0.00,,,0.00,WUHU216HW,2013-02-08 04:30:00,
2013-02-07 23:35:00,34.6,23.6,30.17,North,0,0.0,0.0,64,0.00,,,0.00,WUHU216HW,2013-02-08 04:35:00,